Location: Dugenta
(41.1333°N, 14.4500°E)
Time: 14:02:24
(UTC+00:00)

Lacrosse 4 Rocket - Pass Details

Date: 03 March 2021
Orbit: 537 x 620 km, 68.0° (Epoch: 20 April)

Event Time Altitude Azimuth Distance (km) Brightness Sun altitude
Rises 17:32:19 0° 154° (SSE) 2,805 4.7 -7.7°
Reaches altitude 10° 17:36:08 10° 119° (ESE) 1,934 3.6 -8.4°
Maximum altitude 17:37:23 11° 102° (ESE) 1,870 3.4 -8.7°
Enters shadow 17:37:47 11° 97° (E) 1,879 3.4 -8.8°
